• In Uzbekistan
  • List of Countries
  • For 7 days
  • Water Temperature
  • Satellite Maps
  • Weather Map
  • Weather Widgets
  • user-avatar
    Login

    Hourly Weather Ilebo

    Today, 20 August, Sunday

    Time Temperature Precipitation Wind Pressure Humidity
    00:00 +25°C° 0.1 mm 1 mps 722 mmHg 85%
    01:00 +24°C° 0 mm 1 mps 722 mmHg 88%
    02:00 +24°C° 0.2 mm 1 mps 722 mmHg 90%
    03:00 +24°C° 0.2 mm 1 mps 722 mmHg 91%
    04:00 +21°C° 0.2 mm 0 mps 722 mmHg 93%
    05:00 +22°C° 0 mm 0 mps 723 mmHg 91%
    06:00 +23°C° 0 mm 0 mps 723 mmHg 89%
    07:00 +24°C° 0 mm 0 mps 724 mmHg 86%
    08:00 +28°C° 0.7 mm 1 mps 724 mmHg 80%
    09:00 +30°C° 0.7 mm 1 mps 724 mmHg 74%
    10:00 +32°C° 0.7 mm 1 mps 724 mmHg 68%
    11:00 +33°C° 0.2 mm 1 mps 723 mmHg 61%
    12:00 +35°C° 0.2 mm 1 mps 723 mmHg 55%
    13:00 +36°C° 0.2 mm 1 mps 722 mmHg 48%
    14:00 +35°C° 0.3 mm 1 mps 722 mmHg 52%
    15:00 +34°C° 0.3 mm 1 mps 721 mmHg 55%
    16:00 +33°C° 0.3 mm 1 mps 721 mmHg 59%
    17:00 +31°C° 0.2 mm 1 mps 721 mmHg 66%
    18:00 +29°C° 0.2 mm 1 mps 721 mmHg 73%
    19:00 +27°C° 0.2 mm 1 mps 722 mmHg 79%
    20:00 +26°C° 0.7 mm 1 mps 722 mmHg 83%
    21:00 +26°C° 0.7 mm 1 mps 723 mmHg 86%
    22:00 +25°C° 0.7 mm 1 mps 724 mmHg 90%
    23:00 +25°C° 0.4 mm 1 mps 723 mmHg 92%

    Tomorrow, 21 August, Monday

    Time Temperature Precipitation Wind Pressure Humidity
    00:00 +22°C° 0.4 mm 0 mps 723 mmHg 93%
    01:00 +22°C° 0.4 mm 0 mps 723 mmHg 95%
    02:00 +22°C° 0.2 mm 0 mps 723 mmHg 95%
    03:00 +24°C° 0.2 mm 1 mps 722 mmHg 95%
    04:00 +24°C° 0.2 mm 1 mps 722 mmHg 95%
    05:00 +24°C° 0 mm 1 mps 723 mmHg 93%
    06:00 +25°C° 0 mm 1 mps 723 mmHg 92%
    07:00 +25°C° 0 mm 1 mps 724 mmHg 90%
    08:00 +27°C° 0.2 mm 1 mps 724 mmHg 80%
    09:00 +29°C° 0.2 mm 2 mps 724 mmHg 70%
    10:00 +31°C° 0.2 mm 2 mps 724 mmHg 59%
    11:00 +32°C° 0.1 mm 2 mps 723 mmHg 56%
    12:00 +34°C° 0.1 mm 2 mps 723 mmHg 52%
    13:00 +35°C° 0.1 mm 2 mps 722 mmHg 49%
    14:00 +34°C° 0.3 mm 2 mps 721 mmHg 52%
    15:00 +34°C° 0.3 mm 2 mps 720 mmHg 56%
    16:00 +32°C° 0.3 mm 2 mps 720 mmHg 59%
    17:00 +30°C° 0.2 mm 2 mps 720 mmHg 67%
    18:00 +28°C° 0.2 mm 2 mps 721 mmHg 74%
    19:00 +27°C° 0.2 mm 2 mps 722 mmHg 82%
    20:00 +26°C° 0.2 mm 2 mps 722 mmHg 84%
    21:00 +26°C° 0.2 mm 2 mps 723 mmHg 85%
    22:00 +25°C° 0.2 mm 2 mps 723 mmHg 87%
    23:00 +25°C° 0.3 mm 2 mps 723 mmHg 89%

    Day after tomorrow, 22 August, Tuesday

    Time Temperature Precipitation Wind Pressure Humidity
    00:00 +24°C° 0.3 mm 1 mps 722 mmHg 91%
    01:00 +24°C° 0.3 mm 1 mps 722 mmHg 93%
    02:00 +24°C° 0.5 mm 1 mps 722 mmHg 94%
    03:00 +24°C° 0.5 mm 1 mps 722 mmHg 96%
    04:00 +23°C° 0.5 mm 1 mps 722 mmHg 97%
    05:00 +24°C° 0.6 mm 1 mps 722 mmHg 95%
    06:00 +24°C° 0.6 mm 2 mps 723 mmHg 94%
    07:00 +25°C° 0.6 mm 2 mps 724 mmHg 92%
    08:00 +26°C° 1.7 mm 2 mps 724 mmHg 90%
    09:00 +27°C° 1.7 mm 2 mps 724 mmHg 87%
    10:00 +28°C° 1.7 mm 2 mps 725 mmHg 84%
    11:00 +28°C° 1.6 mm 2 mps 724 mmHg 83%
    12:00 +28°C° 1.6 mm 2 mps 723 mmHg 83%
    13:00 +28°C° 1.6 mm 2 mps 722 mmHg 82%
    14:00 +28°C° 0.8 mm 2 mps 722 mmHg 84%
    15:00 +27°C° 0.8 mm 1 mps 722 mmHg 87%
    16:00 +27°C° 0.8 mm 1 mps 721 mmHg 89%
    17:00 +26°C° 0.3 mm 1 mps 721 mmHg 91%
    18:00 +25°C° 0.3 mm 1 mps 722 mmHg 93%
    19:00 +24°C° 0.3 mm 1 mps 722 mmHg 95%
    20:00 +24°C° 0 mm 1 mps 722 mmHg 96%
    21:00 +23°C° 0 mm 1 mps 723 mmHg 96%
    22:00 +23°C° 0 mm 1 mps 723 mmHg 96%
    23:00 +23°C° 0 mm 1 mps 722 mmHg 96%

    23 August, Wednesday

    Time Temperature Precipitation Wind Pressure Humidity
    00:00 +23°C° 0 mm 1 mps 722 mmHg 97%
    01:00 +23°C° 0 mm 1 mps 722 mmHg 97%
    02:00 +22°C° 0 mm 1 mps 722 mmHg 97%
    03:00 +22°C° 0 mm 1 mps 722 mmHg 97%
    04:00 +22°C° 0 mm 1 mps 722 mmHg 97%
    05:00 +23°C° 0 mm 1 mps 722 mmHg 95%
    06:00 +23°C° 0 mm 1 mps 723 mmHg 93%
    07:00 +24°C° 0 mm 1 mps 723 mmHg 91%
    08:00 +26°C° 0.3 mm 1 mps 724 mmHg 84%
    09:00 +28°C° 0.3 mm 2 mps 724 mmHg 76%
    10:00 +30°C° 0.3 mm 2 mps 724 mmHg 68%
    11:00 +30°C° 0.8 mm 2 mps 723 mmHg 68%
    12:00 +31°C° 0.8 mm 2 mps 722 mmHg 68%
    13:00 +31°C° 0.8 mm 2 mps 721 mmHg 68%
    14:00 +31°C° 0.7 mm 2 mps 721 mmHg 70%
    15:00 +30°C° 0.7 mm 2 mps 721 mmHg 72%
    16:00 +30°C° 0.7 mm 2 mps 720 mmHg 73%
    17:00 +28°C° 0.9 mm 2 mps 721 mmHg 80%
    18:00 +26°C° 0.9 mm 1 mps 721 mmHg 87%
    19:00 +25°C° 0.9 mm 1 mps 722 mmHg 93%
    20:00 +24°C° 0.1 mm 1 mps 722 mmHg 94%
    21:00 +24°C° 0.1 mm 1 mps 722 mmHg 94%
    22:00 +24°C° 0.1 mm 1 mps 723 mmHg 95%
    23:00 +23°C° 0 mm 1 mps 722 mmHg 95%

    24 August, Thursday

    Time Temperature Precipitation Wind Pressure Humidity
    00:00 +23°C° 0 mm 1 mps 722 mmHg 96%
    01:00 +23°C° 0 mm 1 mps 721 mmHg 96%
    02:00 +23°C° 0 mm 1 mps 721 mmHg 96%
    03:00 +23°C° 0 mm 1 mps 722 mmHg 96%
    04:00 +23°C° 0 mm 1 mps 722 mmHg 96%
    05:00 +23°C° 0 mm 1 mps 722 mmHg 95%
    06:00 +24°C° 0 mm 1 mps 723 mmHg 94%
    07:00 +24°C° 0 mm 1 mps 723 mmHg 93%
    08:00 +25°C° 0.7 mm 2 mps 723 mmHg 90%
    09:00 +26°C° 0.7 mm 2 mps 723 mmHg 88%
    10:00 +27°C° 0.7 mm 2 mps 724 mmHg 85%
    11:00 +27°C° 0.7 mm 2 mps 723 mmHg 85%
    12:00 +27°C° 0.7 mm 2 mps 722 mmHg 84%
    13:00 +28°C° 0.7 mm 2 mps 721 mmHg 84%
    14:00 +28°C° 0.1 mm 2 mps 721 mmHg 80%
    15:00 +29°C° 0.1 mm 2 mps 720 mmHg 76%
    16:00 +29°C° 0.1 mm 2 mps 720 mmHg 72%
    17:00 +28°C° 0.1 mm 1 mps 721 mmHg 78%
    18:00 +27°C° 0.1 mm 1 mps 721 mmHg 84%
    19:00 +25°C° 0.1 mm 1 mps 722 mmHg 90%
    20:00 +25°C° 0 mm 1 mps 722 mmHg 91%
    21:00 +25°C° 0 mm 1 mps 722 mmHg 92%
    22:00 +24°C° 0 mm 1 mps 723 mmHg 93%
    23:00 +24°C° 0.2 mm 1 mps 722 mmHg 94%

    25 August, Friday

    Time Temperature Precipitation Wind Pressure Humidity
    00:00 +24°C° 0.2 mm 1 mps 722 mmHg 95%
    01:00 +23°C° 0.2 mm 1 mps 722 mmHg 95%
    02:00 +23°C° 0.2 mm 1 mps 722 mmHg 95%
    03:00 +23°C° 0.2 mm 1 mps 722 mmHg 96%
    04:00 +23°C° 0.2 mm 1 mps 722 mmHg 96%
    05:00 +23°C° 0.3 mm 1 mps 723 mmHg 95%
    06:00 +24°C° 0.3 mm 1 mps 723 mmHg 95%
    07:00 +24°C° 0.3 mm 1 mps 724 mmHg 94%
    08:00 +25°C° 0.4 mm 1 mps 724 mmHg 91%
    09:00 +26°C° 0.4 mm 2 mps 724 mmHg 88%
    10:00 +27°C° 0.4 mm 2 mps 724 mmHg 85%
    11:00 +28°C° 0.2 mm 2 mps 723 mmHg 77%
    12:00 +30°C° 0.2 mm 2 mps 722 mmHg 69%
    13:00 +31°C° 0.2 mm 2 mps 721 mmHg 62%
    14:00 +31°C° 0 mm 2 mps 721 mmHg 62%
    15:00 +31°C° 0 mm 2 mps 721 mmHg 62%
    16:00 +31°C° 0 mm 1 mps 720 mmHg 62%
    17:00 +29°C° 0.1 mm 1 mps 721 mmHg 69%
    18:00 +27°C° 0.1 mm 1 mps 721 mmHg 76%
    19:00 +24°C° 0.1 mm 0 mps 721 mmHg 84%
    20:00 +23°C° 0.5 mm 0 mps 722 mmHg 86%
    21:00 +22°C° 0.5 mm 0 mps 722 mmHg 89%
    22:00 +22°C° 0.5 mm 0 mps 723 mmHg 92%
    23:00 +24°C° 1.5 mm 1 mps 722 mmHg 93%
    Show more